Snowfall_Accumulation
0.0 0.0 0.0 0.0 0.0 0.0 0.0 0.0 0.1 0.2 0.1 0.2 0.2 0.3 0.5 1.1 0.7 1.5 1.7 1.1 1.0 0.8 0.5 0.5 0.3 0.1 0.5 0.2 0.0 0.0 0.0 0.0 0.0 0.0 0.0 0.0 0.0 0.0 0.0 0.0 0.0 0.0 0.0
0.0 0.0 0.0 0.0 0.0 0.0 0.1 0.1 0.1 0.1 0.1 0.2 0.2 0.3 0.6 0.7 0.4 1.2 1.7 1.0 0.9 0.7 0.8 1.2 0.9 0.1 0.1 0.0 0.1 0.0 0.0 0.0 0.0 0.0 0.0 0.0 0.0 0.0 0.0 0.0 0.0 0.0 0.0
0.0 0.0 0.0 0.0 0.0 0.0 0.0 0.1 0.0 0.1 0.1 0.1 0.2 0.4 0.9 0.6 0.7 0.6 0.9 0.7 0.6 0.7 0.9 2.1 1.6 0.4 0.2 0.3 0.0 0.0 0.1 0.0 0.0 0.0 0.0 0.0 0.0 0.0 0.0 0.0 0.0 0.0 0.0
0.0 0.0 0.0 0.0 0.0 0.0 0.1 0.0 0.1 0.1 0.2 0.2 0.3 0.6 1.5 1.2 0.7 0.6 0.3 0.5 0.8 1.5 1.6 0.8 0.6 0.4 0.2 0.1 0.0 0.0 0.0 0.0 0.0 0.0 0.0 0.0 0.0 0.0 0.0 0.0 0.0 0.0 0.0
0.0 0.0 0.0 0.0 0.0 0.1 0.1 0.1 0.1 0.2 0.2 0.2 0.4 0.6 1.4 2.4 1.2 1.7 0.5 0.5 1.0 1.4 0.9 0.2 0.3 nan nan nan 0.1 0.0 0.0 0.0 0.0 0.0 0.0 0.0 0.0 0.0 0.0 0.0 0.0 0.0 0.0
0.0 0.0 0.0 0.0 0.0 0.1 0.1 0.1 0.1 0.2 0.2 0.3 0.3 0.8 1.4 2.4 nan nan 1.8 2.1 1.2 1.0 1.9 0.5 0.2 0.1 0.1 nan nan nan nan 0.0 0.0 0.0 0.0 0.0 0.0 0.0 0.0 0.0 0.0 0.0 0.0
0.0 0.0 0.0 0.0 0.1 0.1 0.1 0.1 0.1 0.2 0.2 0.3 0.4 0.6 1.7 2.2 nan nan nan 1.7 2.0 1.5 1.3 0.4 0.2 0.1 nan 0.1 nan nan nan nan 0.0 0.0 0.0 0.0 0.0 0.0 0.0 0.0 0.0 0.0 0.0
0.0 0.0 0.0 0.1 0.1 0.2 0.1 0.1 0.1 0.2 0.3 0.3 0.5 0.9 1.4 1.2 nan nan nan 0.7 0.5 0.6 0.8 0.8 0.3 0.2 0.1 0.0 0.0 0.0 0.0 0.0 0.0 0.0 0.0 0.0 0.0 0.0 0.0 0.0 0.0 0.0 0.0
0.0 0.0 0.0 0.1 0.2 0.2 0.1 0.1 0.1 0.2 0.1 0.2 0.4 0.5 0.9 2.0 nan nan 0.1 0.1 0.2 0.4 0.3 0.2 0.2 0.2 nan nan 0.0 0.0 0.0 0.0 nan nan nan nan nan nan nan 0.0 0.0 0.0 0.0
0.0 0.0 0.0 0.1 0.2 0.2 0.2 0.2 0.2 0.2 0.2 0.1 0.1 0.3 nan 0.6 nan nan nan 0.4 0.2 1.0 0.2 0.2 nan 0.1 nan nan 0.0 0.0 0.0 0.0 0.0 0.0 0.0 0.0 nan nan nan 0.0 0.0 0.0 0.0
0.0 0.0 0.0 0.2 0.2 0.2 0.2 0.2 0.2 0.2 0.1 0.1 0.1 0.1 0.3 0.2 0.2 nan nan 0.3 0.8 0.9 1.2 1.2 0.9 nan nan nan nan 0.0 0.1 0.0 0.0 0.1 0.1 0.1 0.1 0.1 0.3 0.2 0.0 0.0 0.1
0.0 0.0 0.1 0.2 0.1 0.1 0.2 0.1 0.2 0.2 0.1 0.1 0.1 0.3 0.5 0.2 nan nan nan nan nan 0.5 0.6 0.9 0.6 nan nan nan 0.2 nan nan 0.0 0.3 0.5 0.4 0.6 0.8 0.8 0.5 0.4 0.0 0.1 0.2
0.0 0.1 0.2 0.1 0.1 0.1 0.2 0.2 0.4 0.2 0.4 0.3 0.4 0.5 0.7 0.5 0.5 nan nan nan nan 0.4 0.5 0.5 nan nan nan 0.0 nan nan 0.0 0.4 0.8 1.7 2.1 2.8 2.1 0.8 0.1 0.2 0.0 0.0 0.1
0.0 0.2 0.2 0.2 0.1 0.1 0.2 0.2 0.3 0.6 0.6 0.5 0.6 0.9 1.0 0.7 0.7 0.4 0.3 0.2 nan 0.2 0.0 0.2 0.0 0.1 0.0 0.1 0.1 0.3 0.4 0.6 0.7 1.2 1.7 1.4 0.7 0.6 0.6 0.4 0.4 0.4 0.9
0.0 0.2 0.3 0.3 0.1 0.1 0.2 0.5 0.7 0.9 1.0 0.8 0.9 0.6 0.9 1.8 1.5 0.6 0.4 0.5 0.4 0.2 0.1 0.2 0.3 0.3 0.5 0.4 0.5 0.6 0.4 0.4 0.6 0.8 0.9 0.8 0.7 0.5 0.9 0.6 0.6 0.5 1.4
0.0 0.0 0.4 0.5 0.4 0.3 0.2 0.4 nan nan nan nan nan 0.4 0.7 nan nan nan nan nan nan nan 0.2 0.5 1.4 1.3 1.2 0.8 0.9 0.7 0.4 0.3 0.4 0.4 0.5 0.5 0.6 0.6 0.7 0.7 0.6 0.8 2.0
0.0 0.0 0.0 0.1 0.4 0.4 0.3 0.5 0.9 0.7 nan nan nan nan nan nan nan nan nan nan nan nan 0.5 0.6 1.3 1.5 1.2 0.8 0.7 0.6 1.1 0.7 0.1 0.4 0.5 0.5 0.5 0.6 0.5 0.8 0.9 0.9 1.9
0.0 0.0 0.0 0.1 0.1 0.4 0.4 0.6 0.5 1.0 2.3 2.6 nan nan nan nan nan nan nan nan 0.3 nan 0.4 0.7 1.1 1.0 0.7 0.7 0.5 0.5 0.5 0.6 0.6 0.4 0.5 0.6 0.7 0.5 0.7 0.8 1.0 1.4 1.6
0.0 0.1 0.1 0.1 0.4 0.6 0.4 0.4 0.5 0.7 1.7 2.0 0.9 0.5 0.2 nan nan nan nan 0.3 0.5 0.8 0.7 0.9 0.8 0.5 0.4 0.3 0.4 0.6 0.5 1.0 0.8 1.0 0.7 1.0 1.6 0.4 0.7 0.8 0.8 0.4 0.4
0.1 0.0 0.1 0.2 0.2 0.3 0.5 0.5 0.4 0.5 0.6 0.6 0.8 1.4 0.8 0.2 1.2 2.2 0.8 0.9 0.7 0.7 0.7 0.6 0.5 0.3 0.3 0.3 0.4 0.9 0.9 1.1 0.9 0.7 1.3 2.0 1.3 0.4 0.5 0.5 0.6 0.7 0.5
0.1 0.2 0.0 0.1 0.1 0.2 0.2 0.6 0.7 0.7 0.7 0.7 1.4 2.1 0.2 0.5 1.1 1.1 1.0 1.1 0.9 0.8 0.8 0.4 0.5 0.4 0.3 0.4 0.3 0.5 0.5 2.0 0.6 0.7 0.5 0.5 7.6 1.0 0.4 0.4 0.6 0.6 0.5
0.1 0.1 0.1 0.1 0.1 0.2 0.2 0.2 0.3 0.4 0.5 0.6 1.1 1.4 0.9 0.6 0.5 0.6 0.6 1.1 1.7 0.5 0.5 0.4 0.4 0.4 0.4 0.4 0.5 1.4 1.3 2.5 1.6 0.9 0.7 0.8 0.6 0.6 0.6 0.6 0.8 0.8 0.6
0.0 0.1 0.0 0.0 0.1 0.0 0.2 0.2 0.2 0.3 0.4 0.5 0.5 1.1 1.4 1.2 1.2 0.7 1.0 1.6 0.6 0.7 0.5 0.4 0.8 0.7 0.4 0.6 0.5 0.5 1.1 1.2 1.0 1.0 1.4 1.5 0.8 0.8 1.1 0.8 0.8 1.1 1.1
0.1 0.1 0.1 0.2 0.2 0.1 0.2 0.4 0.2 0.8 0.3 0.5 1.2 0.9 0.9 1.2 3.6 3.0 3.5 3.5 1.8 2.6 2.8 3.1 0.9 0.7 0.8 2.3 1.0 0.6 0.5 1.2 0.8 1.1 0.6 1.4 1.2 1.0 1.0 0.9 0.9 0.6 1.3
0.1 0.2 0.2 0.2 0.2 0.5 0.7 0.3 0.5 0.6 0.7 1.0 2.3 1.1 0.4 1.0 0.9 4.0 2.3 1.7 2.0 3.3 1.6 2.7 1.9 0.7 1.3 1.8 1.4 0.2 0.6 0.9 0.9 0.9 1.0 0.2 0.6 0.5 1.1 0.8 1.0 0.6 0.8
0.1 0.1 0.2 0.2 0.3 0.6 0.7 2.3 1.8 1.4 1.8 2.1 2.1 2.5 1.1 0.9 0.7 2.6 2.0 2.0 2.1 2.0 1.4 1.6 1.2 1.3 1.2 0.7 0.3 2.9 2.8 2.1 2.1 1.2 1.5 0.6 1.3 1.3 1.2 0.5 0.4 1.1 0.5
Water_Equivalent
0.00 0.00 0.00 0.00 0.00 0.00 0.00 0.00 0.02 0.03 0.03 0.03 0.05 0.08 0.10 0.23 0.16 0.32 0.35 0.25 0.21 0.18 0.11 0.11 0.07 0.02 0.14 0.08 0.01 0.00 0.00 0.00 0.00 0.00 0.00 0.00 0.00 0.00 0.00 0.00 0.00 0.00 0.00
0.00 0.00 0.00 0.00 0.00 0.00 0.01 0.02 0.02 0.02 0.02 0.03 0.04 0.06 0.14 0.15 0.10 0.26 0.36 0.22 0.19 0.15 0.17 0.25 0.22 0.01 0.02 0.00 0.03 0.00 0.00 0.00 0.00 0.00 0.00 0.00 0.00 0.00 0.00 0.00 0.00 0.00 0.00
0.00 0.00 0.00 0.00 0.00 0.00 0.01 0.01 0.01 0.03 0.02 0.02 0.04 0.10 0.20 0.13 0.15 0.14 0.20 0.17 0.12 0.14 0.20 0.45 0.39 0.10 0.05 0.10 0.01 0.01 0.02 0.00 0.00 0.00 0.00 0.00 0.00 0.00 0.00 0.00 0.00 0.00 0.00
0.00 0.00 0.00 0.00 0.00 0.01 0.01 0.01 0.02 0.03 0.03 0.04 0.06 0.14 0.32 0.25 0.16 0.13 0.06 0.12 0.16 0.33 0.38 0.20 0.15 0.11 0.05 0.02 0.00 0.00 0.00 0.00 0.00 0.00 0.00 0.00 0.00 0.00 0.00 0.00 0.00 0.00 0.00
0.00 0.00 0.00 0.00 0.00 0.01 0.02 0.01 0.02 0.03 0.04 0.05 0.08 0.13 0.29 0.56 0.29 0.42 0.13 0.11 0.21 0.31 0.21 0.05 0.07 nan nan nan 0.03 0.01 0.00 0.00 0.00 0.00 0.00 0.00 0.00 0.00 0.00 0.00 0.00 0.00 0.00
0.00 0.00 0.00 0.00 0.00 0.02 0.02 0.02 0.02 0.04 0.05 0.06 0.07 0.16 0.29 0.59 nan nan 0.47 0.48 0.29 0.25 0.44 0.12 0.06 0.03 0.02 nan nan nan nan 0.00 0.00 0.02 0.00 0.00 0.00 0.00 0.00 0.00 0.00 0.00 0.00
0.00 0.00 0.00 0.00 0.02 0.03 0.02 0.02 0.02 0.05 0.05 0.05 0.09 0.12 0.33 0.52 nan nan nan 0.47 0.54 0.42 0.36 0.10 0.05 0.01 nan 0.01 nan nan nan nan 0.00 0.00 0.00 0.01 0.00 0.00 0.00 0.00 0.00 0.00 0.00
0.00 0.00 0.00 0.01 0.03 0.04 0.01 0.01 0.02 0.04 0.05 0.07 0.10 0.18 0.31 0.30 nan nan nan 0.21 0.15 0.17 0.25 0.24 0.08 0.04 0.03 0.01 0.00 0.00 0.00 0.00 0.00 0.00 0.00 0.00 0.00 0.00 0.00 0.00 0.00 0.00 0.00
0.00 0.00 0.00 0.03 0.03 0.04 0.02 0.03 0.03 0.03 0.03 0.04 0.08 0.10 0.20 0.48 nan nan 0.04 0.04 0.04 0.11 0.07 0.07 0.05 0.05 nan nan 0.00 0.00 0.00 0.00 nan nan nan nan nan nan nan 0.00 0.00 0.00 0.01
0.00 0.00 0.01 0.03 0.03 0.04 0.04 0.05 0.04 0.03 0.04 0.02 0.02 0.06 nan 0.15 nan nan nan 0.12 0.05 0.30 0.05 0.05 nan 0.03 nan nan 0.00 0.00 0.00 0.01 0.00 0.00 0.00 0.00 nan nan nan 0.00 0.00 0.00 0.01
0.00 0.00 0.01 0.03 0.03 0.04 0.03 0.03 0.03 0.03 0.01 0.02 0.03 0.03 0.06 0.05 0.04 nan nan 0.08 0.25 0.26 0.33 0.39 0.29 nan nan nan nan 0.00 0.02 0.00 0.00 0.03 0.04 0.05 0.02 0.03 0.09 0.06 0.00 0.01 0.04
0.00 0.00 0.02 0.04 0.03 0.02 0.03 0.03 0.03 0.03 0.02 0.02 0.01 0.07 0.13 0.03 nan nan nan nan nan 0.13 0.17 0.29 0.19 nan nan nan 0.06 nan nan 0.02 0.11 0.16 0.15 0.23 0.27 0.26 0.18 0.12 0.01 0.03 0.07
0.00 0.02 0.03 0.03 0.02 0.02 0.04 0.03 0.09 0.03 0.09 0.05 0.10 0.13 0.17 0.13 0.12 nan nan nan nan 0.14 0.16 0.17 nan nan nan 0.00 nan nan 0.00 0.15 0.32 0.67 0.83 1.03 0.75 0.27 0.05 0.07 0.00 0.00 0.02
0.00 0.03 0.04 0.03 0.03 0.02 0.04 0.05 0.08 0.13 0.13 0.12 0.14 0.20 0.23 0.21 0.21 0.13 0.08 0.05 nan 0.07 0.01 0.08 0.00 0.06 0.00 0.03 0.06 0.12 0.16 0.22 0.29 0.48 0.65 0.52 0.26 0.23 0.21 0.16 0.17 0.15 0.31
0.00 0.03 0.06 0.06 0.02 0.02 0.03 0.11 0.15 0.19 0.22 0.19 0.20 0.14 0.27 0.53 0.45 0.17 0.14 0.14 0.12 0.07 0.04 0.08 0.14 0.14 0.18 0.16 0.18 0.23 0.18 0.15 0.23 0.31 0.36 0.33 0.27 0.19 0.30 0.21 0.22 0.18 0.45
0.00 0.00 0.08 0.10 0.08 0.06 0.06 0.13 nan nan nan nan nan 0.10 0.21 nan nan nan nan nan nan nan 0.09 0.21 0.52 0.50 0.39 0.28 0.31 0.25 0.16 0.11 0.15 0.16 0.20 0.20 0.23 0.23 0.25 0.23 0.18 0.24 0.56
0.00 0.00 0.01 0.04 0.09 0.09 0.10 0.13 0.22 0.20 nan nan nan nan nan nan nan nan nan nan nan nan 0.19 0.21 0.41 0.49 0.35 0.24 0.20 0.18 0.31 0.20 0.03 0.14 0.16 0.19 0.17 0.19 0.19 0.26 0.29 0.28 0.57
0.00 0.00 0.00 0.02 0.05 0.10 0.13 0.19 0.19 0.32 0.71 0.82 nan nan nan nan nan nan nan nan 0.12 nan 0.11 0.20 0.31 0.28 0.19 0.20 0.15 0.14 0.16 0.18 0.18 0.14 0.16 0.20 0.23 0.18 0.23 0.26 0.30 0.41 0.44
0.01 0.04 0.04 0.05 0.12 0.16 0.14 0.17 0.19 0.24 0.42 0.49 0.27 0.13 0.06 nan nan nan nan 0.09 0.16 0.19 0.18 0.22 0.22 0.14 0.13 0.10 0.15 0.20 0.18 0.33 0.30 0.40 0.23 0.38 0.65 0.15 0.24 0.24 0.24 0.13 0.14
0.05 0.00 0.04 0.07 0.09 0.11 0.14 0.17 0.18 0.19 0.20 0.19 0.20 0.30 0.21 0.08 0.35 0.78 0.24 0.32 0.22 0.19 0.17 0.15 0.14 0.09 0.10 0.10 0.17 0.36 0.34 0.45 0.30 0.26 0.51 0.81 0.53 0.16 0.19 0.18 0.22 0.26 0.19
0.05 0.07 0.00 0.04 0.05 0.06 0.09 0.16 0.18 0.22 0.24 0.20 0.34 0.52 0.07 0.14 0.29 0.28 0.25 0.30 0.23 0.20 0.23 0.12 0.14 0.14 0.12 0.14 0.12 0.20 0.16 0.78 0.22 0.25 0.19 0.21 3.03 0.38 0.17 0.17 0.25 0.21 0.17
0.02 0.04 0.03 0.05 0.04 0.08 0.07 0.07 0.10 0.14 0.16 0.19 0.28 0.33 0.30 0.23 0.16 0.19 0.20 0.38 0.63 0.16 0.14 0.15 0.14 0.13 0.13 0.14 0.16 0.54 0.52 0.99 0.64 0.36 0.27 0.30 0.24 0.24 0.22 0.23 0.31 0.32 0.22
0.01 0.03 0.01 0.01 0.03 0.01 0.07 0.06 0.08 0.12 0.13 0.18 0.18 0.29 0.40 0.39 0.38 0.23 0.33 0.63 0.23 0.26 0.18 0.14 0.30 0.25 0.16 0.24 0.20 0.17 0.39 0.40 0.35 0.37 0.54 0.57 0.29 0.31 0.45 0.31 0.30 0.41 0.40
0.02 0.04 0.04 0.06 0.08 0.05 0.09 0.14 0.10 0.26 0.11 0.19 0.46 0.36 0.33 0.45 1.43 1.08 1.31 1.40 0.68 1.00 1.12 1.18 0.31 0.22 0.26 0.92 0.38 0.24 0.20 0.42 0.30 0.38 0.22 0.49 0.42 0.37 0.38 0.35 0.31 0.19 0.44
0.03 0.09 0.10 0.07 0.10 0.21 0.29 0.14 0.19 0.25 0.29 0.40 0.89 0.42 0.16 0.37 0.35 1.59 0.92 0.62 0.71 1.24 0.55 0.95 0.65 0.25 0.43 0.54 0.41 0.07 0.21 0.30 0.30 0.30 0.36 0.06 0.19 0.17 0.37 0.29 0.35 0.24 0.28
0.03 0.04 0.06 0.07 0.10 0.23 0.28 0.93 0.72 0.55 0.72 0.85 0.85 1.00 0.42 0.31 0.24 1.01 0.72 0.71 0.69 0.66 0.47 0.53 0.40 0.41 0.36 0.25 0.10 0.94 0.94 0.70 0.68 0.39 0.51 0.22 0.45 0.46 0.43 0.17 0.12 0.37 0.18
SL_Ratio
nan nan nan nan nan nan nan 5.0 5.2 5.2 5.1 5.0 4.8 4.5 4.6 4.5 4.5 4.6 4.7 4.6 4.7 4.7 4.5 4.3 4.2 3.8 3.4 2.8 2.5 nan nan nan nan nan nan nan nan nan nan nan nan nan nan
nan nan nan nan nan nan 5.0 5.0 5.1 5.3 4.9 4.5 4.6 4.5 4.5 4.4 4.3 4.7 4.8 4.6 4.7 4.9 4.7 4.6 4.3 4.1 3.9 nan 2.5 nan nan nan nan nan nan nan nan nan nan nan nan nan nan
nan nan nan nan nan 5.0 5.4 5.0 5.0 5.1 4.9 4.6 4.6 4.4 4.7 4.6 4.8 4.6 4.3 4.5 4.8 4.7 4.7 4.6 4.2 3.9 3.9 3.1 2.6 2.5 2.6 nan nan nan nan nan nan nan nan nan nan nan nan
nan nan nan nan nan 5.4 5.0 5.0 5.2 4.9 4.8 4.8 4.5 4.4 4.7 4.6 4.4 4.2 4.3 4.5 4.7 4.5 4.2 3.9 3.8 3.9 3.8 3.7 nan nan nan nan nan nan nan nan nan nan nan nan nan nan nan
nan nan nan nan 5.0 5.0 5.0 5.2 5.2 4.8 4.7 4.7 4.7 4.8 4.7 4.2 4.1 4.0 4.1 4.3 4.7 4.5 4.1 3.9 3.8 nan nan nan 2.6 2.5 5.0 nan nan nan nan nan nan nan nan nan nan nan nan
nan nan nan nan 5.0 5.0 5.0 5.0 5.0 5.0 5.0 4.9 4.9 4.9 5.0 4.2 nan nan 3.7 4.4 4.1 4.1 4.4 3.9 3.8 3.8 3.6 nan nan nan nan nan nan 2.8 nan nan nan nan nan nan nan nan nan
nan nan nan nan 5.1 5.1 4.8 5.2 5.1 5.3 5.0 5.1 4.9 4.8 5.0 4.3 nan nan nan 3.7 3.8 3.5 3.5 3.6 4.3 4.3 nan 3.8 nan nan nan nan nan nan nan 2.7 nan nan nan nan nan nan nan
nan nan nan 5.0 5.0 5.0 5.0 5.2 5.0 5.1 5.1 5.1 5.0 4.8 4.6 4.0 nan nan nan 3.6 3.7 3.5 3.4 3.5 3.4 3.8 3.5 3.4 nan nan nan nan nan nan nan nan nan nan nan nan nan nan nan
nan nan nan 5.0 5.1 5.0 5.2 5.1 5.0 5.0 4.9 5.0 5.0 4.9 4.6 4.1 nan nan 3.4 3.5 3.8 3.9 3.5 3.1 3.5 3.7 nan nan 0.0 3.3 0.0 nan nan nan nan nan nan nan nan nan nan nan 2.5
nan nan 5.0 5.0 5.0 5.1 5.1 5.1 4.9 4.6 4.6 4.6 4.6 4.6 nan 4.3 nan nan nan 3.1 4.0 3.2 4.2 3.9 nan 3.6 nan nan 5.0 nan 3.6 3.5 nan nan nan nan nan nan nan nan nan nan 2.5
nan nan 5.0 4.9 4.9 4.9 4.7 4.8 4.9 4.9 4.4 4.7 4.6 4.6 4.5 4.2 4.0 nan nan 3.3 3.3 3.4 3.5 3.1 3.1 nan nan nan nan nan 3.8 nan 5.0 2.9 2.8 2.6 3.0 3.0 3.1 3.0 3.0 2.9 2.7
nan 5.0 4.8 4.7 4.6 4.8 4.7 5.0 5.0 5.1 5.2 4.8 5.0 4.1 4.0 4.4 nan nan nan nan nan 3.4 3.4 3.0 3.2 nan nan nan 2.7 nan nan 2.5 2.6 2.7 2.7 2.8 2.9 3.0 3.1 3.1 3.1 3.0 3.0
nan 5.0 4.8 4.6 4.5 4.4 4.8 5.2 4.3 5.0 4.6 5.2 4.4 4.2 4.3 3.9 3.7 nan nan nan nan 2.9 3.0 3.0 nan nan nan nan nan nan 2.5 2.5 2.5 2.5 2.5 2.7 2.8 2.9 2.8 2.6 2.5 0.0 3.0
5.0 5.1 4.9 4.5 4.5 4.5 4.1 4.4 4.3 4.7 4.5 4.5 4.5 4.4 4.1 3.5 3.2 3.3 3.6 3.5 nan 3.2 2.6 2.7 nan 2.5 nan 2.5 2.5 2.5 2.5 2.5 2.5 2.5 2.6 2.6 2.5 2.6 2.8 2.8 2.7 2.5 2.8
nan 5.1 5.2 4.9 4.3 3.9 4.8 4.5 4.5 4.8 4.5 4.3 4.3 4.1 3.3 3.4 3.3 3.6 3.3 3.2 3.0 3.0 2.5 2.5 2.5 2.5 2.5 2.5 2.5 2.5 2.5 2.5 2.5 2.5 2.5 2.5 2.5 2.6 3.1 3.0 2.9 2.8 3.2
nan 4.2 4.4 4.9 4.5 4.3 3.9 3.4 nan nan nan nan nan 3.7 3.4 nan nan nan nan nan nan nan 2.5 2.7 2.7 2.6 3.0 2.9 2.8 2.9 2.8 2.7 2.7 2.6 2.6 2.5 2.7 2.8 3.0 3.1 3.2 3.2 3.5
nan 5.0 2.9 3.5 4.4 4.1 3.3 3.8 4.1 3.5 nan nan nan nan nan nan nan nan nan nan nan nan 2.7 3.0 3.0 3.0 3.4 3.5 3.5 3.5 3.6 3.3 3.7 3.1 3.0 2.9 2.8 2.9 2.7 3.0 3.2 3.3 3.4
nan nan 3.0 3.7 3.2 3.6 3.4 3.1 2.8 3.2 3.3 3.2 nan nan nan nan nan nan nan nan 2.6 nan 3.3 3.6 3.6 3.7 3.7 3.7 3.4 3.3 3.3 3.2 3.2 3.1 3.0 2.9 2.9 3.0 3.0 3.2 3.3 3.4 3.6
2.5 2.5 2.5 2.5 3.6 3.7 2.7 2.6 2.5 2.9 4.0 4.1 3.4 3.9 3.9 nan nan nan nan 3.2 3.4 4.0 3.9 4.1 3.8 3.3 3.1 2.9 2.8 2.8 2.8 3.0 2.7 2.5 2.8 2.7 2.5 2.9 3.0 3.3 3.3 3.2 3.1
2.5 nan 2.5 2.5 2.5 2.8 3.4 2.8 2.5 2.8 3.0 3.2 3.8 4.7 3.9 3.0 3.3 2.9 3.2 2.7 3.1 3.9 3.8 3.7 3.4 2.9 2.8 2.7 2.5 2.5 2.5 2.5 2.9 2.8 2.6 2.5 2.5 2.6 2.7 2.7 2.6 2.8 2.7
2.5 2.5 nan 2.5 2.5 2.5 2.5 3.4 3.7 3.3 3.1 3.6 4.2 4.0 3.1 3.6 3.8 3.9 4.0 3.8 4.0 4.0 3.4 3.3 3.2 2.8 2.6 2.5 2.7 2.5 2.9 2.5 2.6 2.6 2.6 2.5 2.5 2.6 2.5 2.5 2.6 2.7 2.8
2.6 2.6 2.6 2.5 2.5 2.6 2.5 2.5 2.5 2.8 2.9 3.3 4.0 4.3 3.0 2.7 2.9 3.2 3.2 2.9 2.7 3.3 3.5 2.9 2.9 2.8 2.9 2.9 2.8 2.5 2.5 2.5 2.5 2.5 2.5 2.6 2.6 2.5 2.6 2.6 2.6 2.6 2.6
2.5 2.5 2.4 2.5 2.4 2.7 2.5 2.6 2.7 2.6 2.7 2.6 3.0 3.6 3.6 3.0 3.0 3.1 3.1 2.6 2.7 2.6 2.5 2.5 2.6 2.7 2.5 2.5 2.6 2.6 2.9 3.0 2.9 2.7 2.7 2.6 2.7 2.6 2.5 2.6 2.7 2.8 2.8
2.6 2.5 2.5 2.5 2.5 2.6 2.5 2.5 2.5 3.0 2.7 2.7 2.6 2.6 2.7 2.7 2.5 2.7 2.7 2.5 2.7 2.5 2.5 2.6 2.8 3.0 2.9 2.5 2.5 2.6 2.8 2.9 2.8 2.9 2.8 2.8 2.8 2.8 2.6 2.7 2.7 3.0 2.9
2.5 2.5 2.5 2.5 2.5 2.5 2.5 2.5 2.5 2.5 2.6 2.5 2.6 2.6 2.7 2.6 2.7 2.5 2.5 2.7 2.8 2.7 2.9 2.9 2.9 2.9 3.0 3.4 3.5 3.3 3.1 3.0 3.0 3.0 2.7 2.9 2.8 3.0 2.9 2.8 2.7 2.6 2.8
2.6 2.5 2.5 2.5 2.5 2.5 2.5 2.5 2.5 2.5 2.5 2.5 2.5 2.5 2.6 2.8 2.8 2.6 2.8 2.9 3.1 3.1 3.0 3.0 3.0 3.2 3.3 2.9 3.1 3.0 3.0 3.0 3.1 3.0 2.8 2.7 2.9 2.9 2.9 2.9 3.1 2.8 2.9